Regional Weather Roundup
Issued by NWS Huntsville, AL

Home | Current Version | Previous Version | Text Only | Print | Product List | Glossary On
Versions: 1 2 3 4 5 6 7 8 9 10 11 12 13 14 15 16 17 18 19 20 21 22 23 24 25 26 27 28 29 30 31 32 33 34 35 36 37 38 39 40 41 42 43 44 45 46 47 48 49 50
000
ASUS44 KHUN 221000
RWRHUN

WEATHER ROUNDUP FOR THE TENNESSEE VALLEY
NATIONAL WEATHER SERVICE HUNTSVILLE AL
500 AM CDT FRI AUG 22 2014

ALZ001>004-221100-
NORTHWEST ALABAMA

CITY           SKY/WX    TMP DP  RH WIND       PRES   REMARKS
COURTLAND HCN    N/A     73 N/A N/A CALM        N/A
RUSSELLVILLE     N/A     70 N/A N/A MISG        N/A
SHOALS AIRPORT CLEAR     72  69  90 CALM      30.08S
SHOALS TVA RES   N/A     73 N/A N/A MISG        N/A
$$

ALZ005>007-016-221100-
NORTH CENTRAL ALABAMA

CITY           SKY/WX    TMP DP  RH WIND       PRES   REMARKS
DECATUR AP     FOG       70  70 100 CALM      30.07S VSB 3/4
HUNTSVILLE AP  CLEAR     74  71  91 CALM      30.07S FOG
$$

ALZ008>010-221100-
NORTHEAST ALABAMA

CITY           SKY/WX    TMP DP  RH WIND       PRES   REMARKS
FORT PAYNE     NOT AVBL
SCOTTSBORO AP  FOG       72  72 100 CALM      30.08S VSB<1/4
SCOTTSBORO HCN   N/A     72 N/A N/A MISG        N/A
VALLEY HEAD      N/A     68 N/A N/A MISG        N/A
$$

TNZ076-096-097-221100-
SOUTHEASTERN MIDDLE TENNESSEE

CITY           SKY/WX    TMP DP  RH WIND       PRES   REMARKS
FAYETTEVILLE   CLEAR     72  70  94 CALM      30.09R
TULLAHOMA      CLEAR     70  66  88 CALM      30.10R
WINCHESTER     CLEAR     72  70  94 CALM      30.09R
$$

...SURROUNDING SITES...

CITY           SKY/WX    TMP DP  RH WIND       PRES   REMARKS
ATLANTA        CLEAR     74  69  85 NW5       30.07F
ANNISTON       CLEAR     73  71  93 CALM      30.07F
BIRMINGHAM     CLEAR     75  72  90 CALM      30.09F
CHATTANOOGA    CLEAR     75  71  87 CALM      30.07S
DALTON         NOT AVBL
GADSDEN        MOCLDY    70  66  88 CALM      30.07S
GOLDEN TRNGL   CLEAR     72  68  88 CALM      30.09S
JACKSON TN     CLEAR     75  72  90 S7        30.05R
MEMPHIS        CLEAR     77  72  84 SW8       30.05S
NASHVILLE      PTCLDY    74  72  93 S3        30.05R
ROME           PTCLDY    70  69  97 CALM      30.07S
SAVANNAH       CLEAR     73  73 100 SW3       30.07S
TUPELO         CLEAR     75  71  87 W3        30.08R
TUSCALOOSA     CLEAR     73  70  90 CALM      30.08R
$$

...GULF COAST WEATHER...

CITY           SKY/WX    TMP DP  RH WIND       PRES   REMARKS
GULFPORT       PTCLDY    77  74  90 W5        30.07S
PASCAGOULA     CLEAR     74  72  93 CALM      30.08R
PENSACOLA      PTCLDY    78  75  90 NW3       30.06R
DESTIN         CLEAR     82  76  81 NW3       30.06R
PANAMA CITY    CLEAR     77  77 100 N2        30.06R
APPALACHICOLA  CLEAR     78  75  90 CALM      30.05R
$$



USA.gov is the U.S. government's official web portal to all federal, state and local government web resources and services.